This demonstration page uses our WeatherBlox Daily Observations layout. Learn more.

Left ArrowRight Arrow

36.19886, -115.1175

Hourly Observations for October 4, 2022

Temp ( °F °C ) Dew Point ( °F °C ) Humidity (%) Winds ( mph kmh ) Pressure ( in mb ) Visibility ( mi km ) Precip ( " mm )
12:53 am 00:53 Clear 80 26.7 50 10 35 35 Calm 29.95 1014 10 16 0.00 0.00
1:53 am 01:53 Clear 78 25.6 50 10 37 37 SW 3 6 29.96 1015 10 16 0.00 0.00
2:53 am 02:53 Clear 78 25.6 49 9.4 36 36 SSE 6 9 29.96 1015 10 16 0.00 0.00
3:53 am 03:53 Clear 77 25 45 7.2 32 32 ESE 6 9 29.96 1015 10 16 0.00 0.00
4:53 am 04:53 Clear 76 24.4 45 7.2 33 33 Calm 29.97 1015 10 16 0.00 0.00
5:53 am 05:53 Clear 75 23.9 45 7.2 34 34 Calm 29.99 1016 10 16 0.00 0.00
6:53 am 06:53 Sunny 74 23.3 46 7.8 37 37 SW 5 7 30.01 1016 10 16 0.00 0.00
7:53 am 07:53 Sunny 75 23.9 47 8.3 37 37 SW 3 6 30.02 1017 10 16 0.00 0.00
8:53 am 08:53 Sunny 78 25.6 47 8.3 33 33 SE 7 11 30.03 1017 10 16 0.00 0.00
9:53 am 09:53 Sunny 81 27.2 47 8.3 30 30 E 6 9 30.03 1017 10 16 0.00 0.00
10:53 am 10:53 Sunny 83 28.3 46 7.8 28 28 ESE 6 9 30.02 1017 10 16 0.00 0.00
11:53 am 11:53 Sunny 86 30 46 7.8 25 25 ESE 6 9 30.00 1016 10 16 0.00 0.00
12:53 pm 12:53 Sunny 88 31.1 45 7.2 22 22 E 8 13 29.97 1015 10 16 0.00 0.00
1:53 pm 13:53 Sunny 88 31.1 47 8.3 24 24 VRB 3 6 29.95 1014 10 16 0.00 0.00
2:53 pm 14:53 Sunny 90 32.2 46 7.8 22 22 SE 8 13 29.92 1013 10 16 0.00 0.00
3:53 pm 15:53 Sunny 90 32.2 45 7.2 21 21 Calm 29.91 1013 10 16 0.00 0.00
4:53 pm 16:53 Sunny 91 32.8 42 5.6 18 18 Calm 29.90 1013 10 16 0.00 0.00
5:53 pm 17:53 Sunny 90 32.2 39 3.9 17 17 E 5 7 29.90 1012 10 16 0.00 0.00
6:53 pm 18:53 Clear 89 31.7 36 2.2 15 15 ENE 6 9 29.91 1013 10 16 0.00 0.00
7:53 pm 19:53 Clear 86 30 37 2.8 18 18 Calm 29.93 1013 10 16 0.00 0.00
8:53 pm 20:53 Clear 84 28.9 43 6.1 24 24 W 6 9 29.94 1014 10 16 0.00 0.00
9:53 pm 21:53 Clear 80 26.7 45 7.2 29 29 NW 6 9 29.95 1014 10 16 0.00 0.00
10:53 pm 22:53 Clear 78 25.6 43 6.1 29 29 NNE 3 6 29.95 1014 10 16 0.00 0.00
11:53 pm 23:53 Clear 76 24.4 42 5.6 30 30 NW 6 9 29.96 1014 10 16 0.00 0.00

Powered by AerisWeather